Abidjan, Ivory Coast

3:56 AM GMT on December 23, 2014 (GMT +0000)
Felix Houphouet-Boigny | Change Station
CLOSE
Current Station
Airport
Location: Abidjan,
Elevation: 26 ft
Nearby Weather Stations

Elev 26 ft 5.26 °N, 3.93 °W | Updated 26 minutes ago

Thunderstorm
Thunderstorm
77 °F
Feels Like 77 °F
N
1
Wind Variable Wind from Variable

Today
High -- | Low -- °F
--% Chance of Precip.
Yesterday
High -- | Low -- °F
Precip. -- in
6:20 AM 6:09 PM
New Moon, 2% visible
Pressure 29.86 in
Visibility 5.0 miles
Clouds Scattered Clouds 1200 ft
Few 2000 ft
Scattered Clouds 3000 ft
Dew Point 75 °F
Humidity 94%
Rainfall 0.00 in
Snow Depth Not available.
UV 0 out of 12
Pollen Not available.
Air Quality Not available.
Flu Activity Not available.
METAR DIAP 230330Z VRB01KT 8000 TS SCT012 FEW020CB SCT030 25/24 Q1011 NOSIG

More Conditions Fewer Conditions

Pressure 29.86 in
Visibility 5.0 miles
Clouds Scattered Clouds 1200 ft
Few 2000 ft
Scattered Clouds 3000 ft
Dew Point 75 °F
Humidity 94%
Rainfall 0.00 in
Snow Depth Not available.
UV 0 out of 12
Pollen Not available.
Air Quality Not available.
Flu Activity Not available.
METAR DIAP 230330Z VRB01KT 8000 TS SCT012 FEW020CB SCT030 25/24 Q1011 NOSIG

More Conditions Fewer Conditions

10-Day Weather Forecast

Almanac

Astronomy

Dec. 23, 2014 Rise Set
Actual Time
Civil Twilight
Nautical Twilight
Astronomical Twilight
Moon
Length of Visible Light
Length of Day
Tomorrow will be .
, % of the Moon is Illuminated

Today's Extremes

Country Highs Country Lows

Community

WunderPhotos

Upload Photos

1,779,764 photos uploaded!

WunderBlogs® & News

Nearby

Air Quality

  Air Quality AQ Index Pollutant
Not available.

Snow Depth

Station Depth Elevation

Earthquake Activity

City Distance Mag. Time & Date
Minimum magnitude displayed is 2.5.

Coastal Water Temperatures

Place Temperature

Nearby Weather Stations